Content
SEND FEEDBACK

Daily
Averages
Monthly
Summary
United States of America

TAMUNING, GUAM


Home > North America > United States > Guam
Elevation: 250 feet     Latitude: 13 29N     Longitude: 144 47E

WEATHER
 
SELECT A DAY
Number of Records: 342,166;   Date Range: 1/1/95 - 8/12/14
 
SHARE

PRINT THIS DATA

[ ← Previous Day ]
WEATHER ALMANAC - APRIL 22, 2013
[ Next Day → ]
[ °C ]   °F
Weather ElementAverageHighLow
Temperature81.5 °F86 °F (12:50 pm)75.7 °F (4:55 am)
Dewpoint74.5 °F77 °F (1:17 pm)69.8 °F (3:09 am)
Humidity79.5 %89 % (11:01 pm)70 % (12:50 pm)
Barometer29.88 in29.94 in (9:55 pm)29.83 in (2:11 pm)
Wind Speed10.8 mph15 mph (11:01 am)
Wind Gust20.7 mph (1:10 pm)
Weather ElementAverage
Visibility10 mi
Wind DirectionENE (74.7 °)

Weather ElementTotal
Precipitation---
Cooling Degree Days15.9 (Base 65)
Growing Degree Days30.9 (Base 50)
Averaged from 123 records on April 22, 2013
WEATHER CONDITIONS BREAKOUT
WIND DIRECTION BREAKOUT
Weather ElementAverageHighLow
Temperature81.5 °F86 °F (12:50 pm)75.7 °F (4:55 am)
Dewpoint74.5 °F77 °F (1:17 pm)69.8 °F (3:09 am)
Humidity79.5 %89 % (11:01 pm)70 % (12:50 pm)
Barometer29.88 in29.94 in (9:55 pm)29.83 in (2:11 pm)
Wind Speed10.8 mph15 mph (11:01 am)
Wind Gust20.7 mph (1:10 pm)
Weather ElementAverage
Visibility10 mi
Wind DirectionENE (74.7 °)

Weather ElementTotal
Precipitation---
Cooling Degree Days15.9 (Base 65)
Growing Degree Days30.9 (Base 50)
Averaged from 123 records on April 22, 2013
WEATHER CONDITIONS BREAKOUT
WIND DIRECTION BREAKOUT
WEATHER BY HOUR - APRIL 22, 2013
[ °C ]   °F
Local TimeTemperatureDewpointHumidityBarometerVisibilityWind DirectionWind SpeedGust SpeedPrecipitationEventsConditions
1:55 AM77.0 °F70.3 °F80 %29.86 in10.0 miEast (80°)8.1 mphPartly Cloudy
2:24 AM77.0 °F71.6 °F83 %29.86 in10.0 miEast (80°)5.8 mphMostly Cloudy
2:31 AM77.0 °F71.6 °F83 %29.86 in10.0 miEast (90°)6.9 mphScattered Clouds
2:34 AM77.0 °F71.6 °F83 %29.86 in10.0 miEast (90°)5.8 mphMostly Cloudy
2:55 AM77.0 °F71.2 °F82 %29.85 in10.0 miEast (80°)5.8 mphScattered Clouds
2:57 AM77.0 °F71.6 °F83 %29.85 in10.0 miEast (80°)5.8 mphMostly Cloudy
2:59 AM77.0 °F71.6 °F83 %29.85 in10.0 miEast (80°)6.9 mphScattered Clouds
3:09 AM77.0 °F69.8 °F78 %29.85 in10.0 miEast (80°)5.8 mphMostly Cloudy
3:14 AM77.0 °F71.6 °F83 %29.85 in10.0 miENE (70°)8.1 mphScattered Clouds
3:16 AM77.0 °F71.6 °F83 %29.85 in10.0 miENE (70°)8.1 mphMostly Cloudy
3:22 AM77.0 °F71.6 °F83 %29.85 in10.0 miEast (80°)6.9 mphScattered Clouds
3:55 AM75.9 °F70.5 °F83 %29.85 in10.0 miEast (80°)5.8 mphClear
4:55 AM75.7 °F71.4 °F86 %29.85 in10.0 miEast (80°)6.9 mphClear
5:55 AM75.9 °F72.0 °F87 %29.86 in10.0 miENE (70°)6.9 mphClear
6:55 AM78.1 °F73.4 °F85 %29.88 in10.0 miENE (60°)6.9 mphClear
7:55 AM81.1 °F74.1 °F79 %29.88 in10.0 miNE (50°)11.5 mphScattered Clouds
8:03 AM80.6 °F73.4 °F79 %29.88 in10.0 miENE (60°)9.2 mphMostly Cloudy
8:08 AM80.6 °F73.4 °F79 %29.88 in10.0 miNE (50°)9.2 mphMostly Cloudy
8:12 AM80.6 °F73.4 °F79 %29.89 in10.0 miENE (60°)9.2 mphMostly Cloudy
8:20 AM82.4 °F73.4 °F74 %29.89 in10.0 miENE (60°)9.2 mphScattered Clouds
8:30 AM80.6 °F75.2 °F84 %29.89 in10.0 miNE (50°)10.4 mphMostly Cloudy
8:50 AM82.4 °F73.4 °F74 %29.89 in10.0 miENE (60°)10.4 mphScattered Clouds
8:53 AM82.4 °F75.2 °F79 %29.89 in10.0 miNE (50°)10.4 mphMostly Cloudy
8:55 AM82.2 °F74.5 °F77 %29.89 in10.0 miENE (70°)11.5 mphMostly Cloudy
9:10 AM82.4 °F75.2 °F79 %29.89 in10.0 miENE (60°)11.5 mphScattered Clouds
9:16 AM82.4 °F75.2 °F79 %29.89 in10.0 miENE (60°)10.4 mphMostly Cloudy
9:24 AM84.2 °F75.2 °F74 %29.89 in10.0 miEast (80°)11.5 mphScattered Clouds
9:30 AM82.4 °F75.2 °F79 %29.89 in10.0 miEast (80°)13.8 mphMostly Cloudy
9:34 AM84.2 °F75.2 °F74 %29.89 in10.0 miEast (90°)11.5 mphScattered Clouds
9:39 AM84.2 °F75.2 °F74 %29.89 in10.0 miENE (60°)10.4 mphMostly Cloudy
9:55 AM84.6 °F74.8 °F72 %29.89 in10.0 miEast (80°)10.4 mphMostly Cloudy
10:30 AM82.4 °F75.2 °F79 %29.90 in10.0 miENE (60°)13.8 mphMostly Cloudy
10:31 AM82.4 °F75.2 °F79 %29.90 in10.0 miNE (50°)13.8 mphMostly Cloudy
10:36 AM84.2 °F75.2 °F74 %29.90 in10.0 miNE (50°)12.7 mphMostly Cloudy
10:37 AM84.2 °F75.2 °F74 %29.90 in10.0 miNE (50°)12.7 mphMostly Cloudy
10:46 AM84.2 °F75.2 °F74 %29.90 in10.0 miENE (70°)12.7 mphMostly Cloudy
10:55 AM84.0 °F75.0 °F74 %29.89 in10.0 miENE (70°)12.7 mphMostly Cloudy
10:59 AM84.2 °F75.2 °F74 %29.89 in10.0 miEast (80°)11.5 mphMostly Cloudy
11:01 AM84.2 °F75.2 °F74 %29.89 in10.0 miNE (50°)15.0 mphMostly Cloudy
11:11 AM84.2 °F75.2 °F74 %29.89 in10.0 miEast (80°)11.5 mphMostly Cloudy
11:13 AM84.2 °F75.2 °F74 %29.89 in10.0 miEast (80°)11.5 mphScattered Clouds
11:29 AM84.2 °F75.2 °F74 %29.89 in10.0 miENE (70°)12.7 mphMostly Cloudy
11:31 AM84.2 °F75.2 °F74 %29.89 in10.0 miEast (80°)12.7 mphScattered Clouds
11:55 AM84.7 °F75.4 °F73 %29.88 in10.0 miENE (60°)12.7 mphMostly Cloudy
11:59 AM84.2 °F75.2 °F74 %29.88 in10.0 miEast (80°)13.8 mphScattered Clouds
12:00 PM84.2 °F75.2 °F74 %29.88 in10.0 miENE (70°)12.7 mphMostly Cloudy
12:28 PM84.2 °F75.2 °F74 %29.87 in10.0 miEast (80°)9.2 mphOvercast
12:29 PM84.2 °F75.2 °F74 %29.87 in10.0 miEast (80°)9.2 mphOvercast
12:32 PM84.2 °F75.2 °F74 %29.87 in10.0 miENE (70°)11.5 mphOvercast
12:43 PM84.2 °F75.2 °F74 %29.86 in10.0 miEast (100°)8.1 mphMostly Cloudy
12:45 PM84.2 °F75.2 °F74 %29.86 in10.0 miEast (90°)10.4 mphMostly Cloudy
12:50 PM86.0 °F75.2 °F70 %29.86 in10.0 miENE (70°)12.7 mphMostly Cloudy
12:51 PM86.0 °F75.2 °F70 %29.86 in10.0 miENE (70°)11.5 mphMostly Cloudy
12:55 PM84.6 °F75.2 °F73 %29.86 in10.0 miENE (70°)12.7 mphMostly Cloudy
12:58 PM84.2 °F75.2 °F74 %29.86 in10.0 miENE (70°)10.4 mphMostly Cloudy
1:10 PM84.2 °F75.2 °F74 %29.85 in10.0 miEast (80°)12.7 mph20.7 mphMostly Cloudy
1:17 PM84.2 °F77.0 °F79 %29.85 in10.0 miEast (80°)12.7 mph18.4 mphMostly Cloudy
1:21 PM84.2 °F75.2 °F74 %29.85 in10.0 miENE (70°)11.5 mphOvercast
1:27 PM84.2 °F75.2 °F74 %29.85 in10.0 miENE (70°)11.5 mphOvercast
1:28 PM84.2 °F75.2 °F74 %29.85 in10.0 miENE (70°)10.4 mphOvercast
1:43 PM84.2 °F75.2 °F74 %29.84 in10.0 miENE (70°)10.4 mphMostly Cloudy
1:46 PM84.2 °F77.0 °F79 %29.84 in10.0 miENE (60°)11.5 mphMostly Cloudy
1:47 PM84.2 °F77.0 °F79 %29.84 in10.0 miENE (60°)10.4 mphMostly Cloudy
1:49 PM84.2 °F75.2 °F74 %29.84 in10.0 miNE (50°)12.7 mphMostly Cloudy
1:55 PM84.6 °F75.6 °F74 %29.84 in10.0 miENE (60°)9.2 mphMostly Cloudy
2:11 PM84.2 °F73.4 °F70 %29.83 in10.0 miNE (50°)11.5 mphMostly Cloudy
2:23 PM84.2 °F75.2 °F74 %29.83 in10.0 miENE (70°)10.4 mphMostly Cloudy
2:31 PM84.2 °F75.2 °F74 %29.83 in10.0 miENE (60°)11.5 mphMostly Cloudy
2:46 PM86.0 °F75.2 °F70 %29.83 in10.0 miENE (60°)10.4 mphScattered Clouds
2:55 PM85.1 °F75.2 °F72 %29.83 in10.0 miENE (70°)9.2 mphPartly Cloudy
3:54 PM84.2 °F75.2 °F74 %29.83 in10.0 miEast (80°)12.7 mphMostly Cloudy
3:55 PM84.0 °F75.4 °F75 %29.83 in10.0 miEast (80°)11.5 mphMostly Cloudy
4:08 PM82.4 °F75.2 °F79 %29.83 in10.0 miENE (70°)10.4 mphMostly Cloudy
4:42 PM82.4 °F75.2 °F79 %29.83 in10.0 miENE (70°)9.2 mphMostly Cloudy
4:43 PM82.4 °F75.2 °F79 %29.83 in10.0 miENE (70°)10.4 mphMostly Cloudy
4:45 PM82.4 °F75.2 °F79 %29.83 in10.0 miENE (70°)10.4 mphScattered Clouds
4:50 PM82.4 °F75.2 °F79 %29.83 in10.0 miENE (60°)10.4 mphMostly Cloudy
4:55 PM82.2 °F75.7 °F81 %29.83 in10.0 miEast (80°)10.4 mphMostly Cloudy
5:04 PM82.4 °F75.2 °F79 %29.83 in10.0 miEast (90°)10.4 mphScattered Clouds
5:15 PM82.4 °F77.0 °F84 %29.84 in10.0 miENE (70°)11.5 mphMostly Cloudy
5:24 PM82.4 °F75.2 °F79 %29.84 in10.0 miEast (80°)13.8 mphScattered Clouds
5:55 PM81.5 °F73.8 °F77 %29.86 in10.0 miEast (90°)10.4 mphPartly Cloudy
6:55 PM80.1 °F73.6 °F81 %29.88 in10.0 miEast (90°)11.5 mphPartly Cloudy
7:01 PM80.6 °F73.4 °F79 %29.88 in10.0 miENE (70°)12.7 mphMostly Cloudy
7:05 PM80.6 °F73.4 °F79 %29.88 in10.0 miEast (80°)11.5 mphScattered Clouds
7:17 PM80.6 °F73.4 °F79 %29.89 in10.0 miEast (90°)10.4 mphMostly Cloudy
7:18 PM80.6 °F73.4 °F79 %29.89 in10.0 miEast (80°)10.4 mphScattered Clouds
7:19 PM80.6 °F73.4 °F79 %29.89 in10.0 miEast (90°)10.4 mphMostly Cloudy
7:51 PM80.6 °F73.4 °F79 %29.90 in10.0 miEast (90°)10.4 mphScattered Clouds
7:55 PM79.9 °F74.1 °F82 %29.90 in10.0 miEast (100°)10.4 mphScattered Clouds
8:17 PM80.6 °F75.2 °F84 %29.91 in10.0 miEast (100°)8.1 mphMostly Cloudy
8:20 PM80.6 °F75.2 °F84 %29.91 in10.0 miEast (90°)9.2 mphScattered Clouds
8:23 PM80.6 °F75.2 °F84 %29.91 in10.0 miEast (100°)9.2 mphMostly Cloudy
8:27 PM80.6 °F75.2 °F84 %29.91 in10.0 miEast (90°)9.2 mphScattered Clouds
8:28 PM80.6 °F75.2 °F84 %29.91 in10.0 miEast (90°)10.4 mphMostly Cloudy
8:31 PM80.6 °F75.2 °F84 %29.91 in10.0 miEast (90°)9.2 mphMostly Cloudy
8:34 PM80.6 °F75.2 °F84 %29.91 in10.0 miEast (90°)10.4 mphMostly Cloudy
8:38 PM80.6 °F75.2 °F84 %29.91 in10.0 miEast (90°)9.2 mphScattered Clouds
8:55 PM79.7 °F74.7 °F84 %29.92 in10.0 miEast (100°)9.2 mphScattered Clouds
9:05 PM80.6 °F75.2 °F84 %29.93 in10.0 miEast (80°)11.5 mphMostly Cloudy
9:27 PM80.6 °F75.2 °F84 %29.93 in10.0 miEast (90°)11.5 mphScattered Clouds
9:55 PM79.7 °F74.8 °F85 %29.94 in10.0 miENE (70°)10.4 mphPartly Cloudy
10:08 PM80.6 °F75.2 °F84 %29.94 in10.0 miENE (70°)11.5 mphMostly Cloudy
10:16 PM80.6 °F75.2 °F84 %29.94 in10.0 miEast (80°)10.4 mphMostly Cloudy
10:23 PM80.6 °F75.2 °F84 %29.94 in10.0 miENE (70°)10.4 mphMostly Cloudy
10:32 PM80.6 °F75.2 °F84 %29.94 in10.0 miEast (80°)12.7 mphMostly Cloudy
10:47 PM80.6 °F75.2 °F84 %29.94 in10.0 miEast (80°)13.8 mphScattered Clouds
10:50 PM80.6 °F75.2 °F84 %29.94 in10.0 miENE (70°)12.7 mphMostly Cloudy
10:54 PM80.6 °F75.2 °F84 %29.94 in10.0 miENE (70°)12.7 mphMostly Cloudy
10:55 PM79.7 °F75.2 °F86 %29.94 in10.0 miENE (70°)12.7 mphMostly Cloudy
11:01 PM78.8 °F75.2 °F89 %29.94 in10.0 miEast (80°)15.0 mphMostly Cloudy
11:04 PM78.8 °F75.2 °F89 %29.94 in10.0 miEast (80°)15.0 mphMostly Cloudy
11:07 PM78.8 °F75.2 °F89 %29.94 in10.0 miEast (80°)12.7 mphMostly Cloudy
11:10 PM78.8 °F75.2 °F89 %29.94 in10.0 miENE (70°)13.8 mphMostly Cloudy
11:12 PM78.8 °F75.2 °F89 %29.94 in10.0 miEast (80°)11.5 mphMostly Cloudy
11:16 PM78.8 °F75.2 °F89 %29.94 in10.0 miEast (80°)11.5 mphMostly Cloudy
11:24 PM78.8 °F75.2 °F89 %29.94 in10.0 miEast (80°)11.5 mphScattered Clouds
11:51 PM78.8 °F75.2 °F89 %29.93 in10.0 miEast (80°)13.8 mphMostly Cloudy
11:52 PM78.8 °F75.2 °F89 %29.93 in10.0 miEast (90°)13.8 mphMostly Cloudy
11:54 PM78.8 °F75.2 °F89 %29.93 in10.0 miEast (80°)15.0 mphScattered Clouds
11:55 PM79.5 °F74.3 °F84 %29.93 in10.0 miEast (90°)13.8 mphMostly Cloudy
11:58 PM78.8 °F73.4 °F83 %29.93 in10.0 miEast (80°)10.4 mphMostly Cloudy
11:59 PM78.8 °F73.4 °F83 %29.93 in10.0 miEast (80°)10.4 mphScattered Clouds
Hourly data recorded from PGUA, located miles away from Tamuning, Guam







STORIES FROM OUR PARTNERS